Regional Weather Roundup
Issued by NWS

Home | Current Version | Previous Version | Graphics & Text | Print | Product List | Glossary On
Versions: 1 2 3 4 5 6 7 8 9 10 11 12 13 14 15 16 17 18 19 20 21 22 23 24 25 26 27 28 29 30 31 32 33 34 35 36 37 38 39 40 41 42 43 44 45 46 47 48 49 50
000
ASUS45 KPSR 260200
RWRAZ

PRELIMINARY ARIZONA REGIONAL HOURLY WEATHER ROUNDUP
NATIONAL WEATHER SERVICE PHOENIX AZ
700 PM MST SUN JAN 25 2015

NOTE: FAIR INDICATES FEW OR NO CLOUDS BELOW 12,000 FEET WITH NO
SIGNIFICANT WEATHER AND/OR OBSTRUCTIONS TO VISIBILITY.

AZZ001>003-036-260300-
NORTHWEST ARIZONA

CITY           SKY/WX    TMP DP  RH WIND       PRES   REMARKS
KINGMAN        CLEAR     49  27  42 E7        30.16R
$$

AZZ004>008-015-016-018-260300-
NORTH CENTRAL ARIZONA

CITY           SKY/WX    TMP DP  RH WIND       PRES   REMARKS
GRAND CANYON   CLEAR     34  20  56 E5        30.34R WCI  30
PRESCOTT       MOCLDY    50  23  34 CALM      30.21R
FLAGSTAFF      NOT AVBL
PAYSON         PTCLDY    54  21  28 NE7       30.24R
$$

AZZ009>014-017-260300-
NORTHEAST ARIZONA

CITY           SKY/WX    TMP DP  RH WIND       PRES   REMARKS
WINSLOW        NOT AVBL
SAINT JOHNS    CLEAR     40  21  46 SW5       30.28R
WINDOW ROCK    CLEAR     40  24  53 CALM      30.31R
$$

AZZ023-260300-
GREATER PHOENIX AREA

CITY           SKY/WX    TMP DP  RH WIND       PRES   REMARKS
PHOENIX        MOCLDY    67  26  21 E5        30.04R
BUCKEYE        MOCLDY    57  27  30 N9        30.05R
GLENDALE       MOCLDY    64  28  25 NW6       30.06R
LUKE AFB       NOT AVBL
DEER VALLEY    MOCLDY    65  25  22 CALM      30.06R
SCOTTSDALE     MOCLDY    64  27  24 CALM      30.08R
MESA-FALCON    MOCLDY    64  28  25 N6        30.06R
MESA-GATEWAY   PTCLDY    63  28  27 NE5       30.08R
CHANDLER       MOCLDY    61  32  33 VRB3      30.06R
$$

AZZ027-028-260300-
SOUTHWEST MARICOPA COUNTY AND PINAL COUNTY

CITY           SKY/WX    TMP DP  RH WIND       PRES   REMARKS
CASA GRANDE    MOCLDY    55  25  30 CALM      30.07R
GILA BEND      FAIR      65  22  19 E8        30.04R
$$

AZZ503-504-507>509-260300-
SOUTHEAST ARIZONA

CITY           SKY/WX    TMP DP  RH WIND       PRES   REMARKS
TUCSON         MOCLDY    66  15  14 E5        30.11R
DAVIS-MONTHAN  CLOUDY    61  20  21 NE6       30.09R
RYAN FIELD       N/A     64  18  16 SE6       30.10R
NOGALES        CLOUDY    61  27  27 CALM      30.13R
SIERRA VISTA   MOCLDY    55  14  19 CALM      30.20R
SAFFORD        PTCLDY    50  22  33 E6        30.17R
$$

AZZ020-021-025-026-031-260300-
SOUTHWEST ARIZONA

CITY           SKY/WX    TMP DP  RH WIND       PRES   REMARKS
YUMA           MOCLDY    64  36  35 S3        30.03R
$$

CAZ031-033-041-043-047-048-061-260300-
SOUTHERN CALIFORNIA

CITY           SKY/WX    TMP DP  RH WIND       PRES   REMARKS
DOWNTOWN L.A.  PTCLDY    70  31  23 CALM      29.99R
L.A. AIRPORT   MOCLDY    69  33  26 SW7       29.99R
SAN DIEGO      MOCLDY    73  26  17 N3        30.00R
BURBANK        PTCLDY    71  31  22 NW6       29.99S
ONTARIO        CLOUDY    76  26  15 CALM      30.00R
RIVERSIDE      CLOUDY    70  30  22 CALM      30.01R
PALM SPRINGS   MOCLDY    77  28  16 NW9       30.04R
EL CENTRO NAS  CLOUDY    69  28  21 SW7       30.01R
IMPERIAL       CLOUDY    67  34  29 SW6       30.01R
BLYTHE         MOCLDY    65  34  31 W3        30.02S
$$

NVZ020-UTZ003-260300-
SOUTHERN NEVADA-UTAH

CITY           SKY/WX    TMP DP  RH WIND       PRES   REMARKS
LAS VEGAS      NOT AVBL
SALT LAKE CITY PTCLDY    38  32  79 NW8       30.41S WCI  32
$$

NMZ009-TXZ055-260300-
NEW MEXICO-WEST TEXAS

CITY           SKY/WX    TMP DP  RH WIND       PRES   REMARKS
ALBUQUERQUE    PTCLDY    48  25  40 N7        30.28R
EL PASO        MOCLDY    54  26  34 CALM      30.24R
$$


........................KEY........................
SKY/WX - SKY CONDITION/WEATHER
TMP    - TEMPERATURE IN FAHRENHEIT
DP     - DEW POINT IN FAHRENHEIT
RH     - RELATIVE HUMIDITY IN PERCENT
WIND   - DIRECTION AND SPEED IN MILES PER HOUR (MPH)
VRB    - VARIABLE WIND DIRECTION
PRES   - MEAN SEA LEVEL PRESSURE IN INCHES OF MERCURY
         F - FALLING PRESSURE   R - RISING PRESSURE
         S - STEADY PRESSURE
VSB    - VISIBILITY IN MILES
HX     - HEAT INDEX IN FAHRENHEIT
WCI    - WIND CHILL INDEX IN FAHRENHEIT
TC     - TEMPERATURE IN CELSIUS WHICH IS ALSO KNOWN AS
         TEMPERATURE IN CENTIGRADE
AFB    - AIR FORCE BASE
         LUKE AFB IS LUKE AIR FORCE BASE
         DAVIS-MONTHAN IS DAVIS-MONTHAN AIR FORCE BASE
NAS    - NAVAL AIR STATION
         EL CENTRO NAS IS EL CENTRO NAVAL AIR STATION
N/A    - NOT AVAILABLE


USA.gov is the U.S. government's official web portal to all federal, state and local government web resources and services.